星链-5603 (STARLINK-5603 )

导读 | 豆包AI

STARLINK-5603是美国太空探索技术公司SpaceX于2023年3月3日发射的星链低轨互联网卫星,隶属于星链(Starlink)卫星互联网项目。星链通过部署数千颗低轨卫星搭建全球宽带网络,可在偏远、基础设施薄弱地区提供百兆级高速、低时延互联网接入,目前已发展为全球规模最大的卫星星座。

Basic Information
目录编号:
55762
目录名称:
STARLINK-5603
国际标识:
2023-028X
轨道中心:
EARTH
卫星名称:
星链-5603
卫星全名:
星链-5603 (STARLINK-5603 )
卫星状态:
在轨 (已飞行1154 天)
发射日期:
2023-03-03 UTC
国别 :
美国 (US)
星等 :
--
Orbit Information
数据来源 国际轨道数据 AOE轨道数据
星历时间 2026-04-30T10:47:24+0800
10小时前
查看轨道信息
2026-04-27T05:00:00+0800
3天前
查看轨道信息
半长轴 6950.196km 6950.173km
偏心率 0.0003651 0.0003836
轨道倾角 69.999° 69.999°
近地点辐角 264.267° 266.376°
升交点赤经 94.902° 103.074°
平近点角 95.807° 255.454°
近地点 569.521km 569.369km
远地点 574.597km 574.703km
周期 96.107分钟 96.107分钟
每日圈数 14.98329 14.983366
Detailed Information
固有亮度:
5
最大亮度:
2.5
卫星平台:
Starlink v1.5
覆盖范围:
全球
运营商:
太空探索技术公司
运营商所在国:
美国
制造商(研发单位):
太空探索技术公司
制造商所在国:
美国
使用方式:
暂无
Satellite Introduction
星链(Starlink)计划是由太空探索技术公司(SpaceX)提出的一个巨型低轨卫星互联网星座项目,计划在2019年至2024年间在太空搭建由约1.2万颗卫星组成的“星链”网络,其中1584颗将部署在地球上空550千米处的近地轨道,并从2020年开始工作。该卫星仍在工作。
2D Orbit Map
3D Orbit Map
Orbit Altitude Analysis Chart
Orbit Inclination Analysis Chart
Orbit Comprehensive Analysis Chart
View Comprehensive Chart